Página principal
METAR-TAF:

METAR-TAF

Aeroportos :

San Juan, Porto Rico, Estados Unidos

latitude: 18-27-24N, longitude: 066-05-54W, altura: 3 m

Observação actual do tempo

O boletim foi feito há 11 horas e 56 minutos, às 22:45 UTC
Vento 8 kt de este
Temperatura 25°C
Humidade 69%
Pressão 1018 hPa
Visibilidade: 16.1 km
Nuvens dispersasa uma altura de 3000 ft
Nuvens fragmentadasa uma altura de 7000 ft

METAR: TJIG 182245Z 09008KT 10SM SCT030 BKN070 25/19 A3005 RMK LAST

Hora: 06:41 (10:41 UTC)


TAF: em falta

Observações e previsões do tempo de mais de 4000 aeroportos (mensagens METAR e TAF).

As estações disponíveis são os pontos amarelos e vermelhos sobre o mapa.

Mova o rato sobre o mapa para ver o nome da estação.

Depois clique no ponto para visualizar as observações e previsões meteorológicas.

Para alterar o mapa : clique nos botões verdes com uma cruz preta para aumentar o zoom; no botão verde com uma pitada de zoom; ou nas setas verdes para mapas adjacentes.


METAR-TAF: